DW4719 Vilanova I la Geltru ES current weather conditions

sailwx.info

Wind from 092 at 0 knots

Air temperature 6.7° C
Dewpoint 1.6° C

Last reported at 2018-Feb-23 10:09 UTC.
Time now 2018-Feb-23 10:52 UTC

Location: N 41°13' E 001°44'.
View on Google Maps.

See reports from other nearby stations

  
Tides and Currents Weather Stations Pressure Air Temp Water Temp Dewpoint Dewpoint Depression Visibility Wind Speed Wind Dir Waves Ship Positions
date/time (UTC)wind fromknots sea level pressurealtimeterstation pressurevisibilityair tempwater tempwave heightnotes
2018-Feb-23 10:09 092 0 6.7
2018-Feb-23 10:04 097 0 6.1
2018-Feb-23 09:59 044 1 6.1
2018-Feb-23 09:54 068 3 5.6
2018-Feb-23 09:49 089 2 5.6
2018-Feb-23 09:44 082 0 5.6
2018-Feb-23 09:39 085 1 5.6
2018-Feb-23 09:34 083 1 5.6
2018-Feb-23 09:29 354 1 5.6
2018-Feb-23 09:24 360 2 5.6
2018-Feb-23 09:19 028 2 5.6
2018-Feb-23 09:14 073 2 5.6
2018-Feb-23 09:09 051 2 5.0
2018-Feb-23 09:04 357 2 5.0
2018-Feb-23 08:59 044 2 5.0
2018-Feb-23 08:54 054 2 4.4
2018-Feb-23 08:49 048 2 4.4
2018-Feb-23 08:44 010 3 4.4
2018-Feb-23 08:39 001 2 4.4
2018-Feb-23 08:34 023 1 4.4
2018-Feb-23 08:29 040 1 4.4
2018-Feb-23 08:24 028 2 4.4
2018-Feb-23 08:19 071 2 4.4
2018-Feb-23 08:14 359 2 4.4
2018-Feb-23 08:09 010 0 4.4
2018-Feb-23 08:04 343 4.4
2018-Feb-23 07:59 049 4.4
2018-Feb-23 07:54 068 0 4.4
2018-Feb-23 07:49 082 4.4
2018-Feb-23 07:44 007 4.4
2018-Feb-23 07:39 007 0 3.9
2018-Feb-23 07:34 090 1 3.9
2018-Feb-23 07:29 017 1 3.9
2018-Feb-23 07:24 014 4.4
2018-Feb-23 07:19 076 4.4
2018-Feb-23 07:14 076 4.4
2018-Feb-23 07:09 076 0 4.4
2018-Feb-23 07:04 076 0 4.4
2018-Feb-23 06:59 075 4.4
2018-Feb-23 06:54 075 4.4
2018-Feb-23 06:49 075 4.4
2018-Feb-23 06:44 075 4.4
2018-Feb-23 06:39 075 5.0
2018-Feb-23 06:34 075 5.0
2018-Feb-23 06:29 075 5.0
2018-Feb-23 06:24 075 5.0
2018-Feb-23 06:19 075 5.0
2018-Feb-23 06:14 075 5.0
2018-Feb-23 06:09 075 0 5.0
2018-Feb-23 06:04 075 1 5.0
2018-Feb-23 05:59 076 1 5.0
2018-Feb-23 05:54 054 0 5.0
2018-Feb-23 05:49 054 5.0
2018-Feb-23 05:44 054 5.0
2018-Feb-23 05:39 054 5.0
2018-Feb-23 05:34 054 5.0
2018-Feb-23 05:29 054 0 5.0
2018-Feb-23 05:24 054 1 5.0
2018-Feb-23 05:19 054 0 5.0
2018-Feb-23 05:14 051 5.0
2018-Feb-23 05:05 048 0 5.0
2018-Feb-23 05:04 048 0 5.0
2018-Feb-23 04:59 044 0 5.0
2018-Feb-23 04:54 347 5.0
2018-Feb-23 04:49 347 5.0
2018-Feb-23 04:44 346 5.6
2018-Feb-23 04:39 346 5.0
2018-Feb-23 04:34 346 5.6
2018-Feb-23 04:29 346 5.6
2018-Feb-23 04:24 346 5.6
2018-Feb-23 04:19 346 5.6
2018-Feb-23 04:14 346 5.6
2018-Feb-23 04:09 346 5.6
2018-Feb-23 04:04 346 5.6
2018-Feb-23 03:59 346 5.6
2018-Feb-23 03:54 346 5.6
2018-Feb-23 03:49 346 5.6
2018-Feb-23 03:44 346 5.6
2018-Feb-23 03:39 346 5.6
2018-Feb-23 03:34 346 5.6
2018-Feb-23 03:29 346 5.6
2018-Feb-23 03:24 346 5.6
2018-Feb-23 03:19 346 5.6
2018-Feb-23 03:14 082 5.6
2018-Feb-23 03:09 080 5.6
2018-Feb-23 03:04 082 5.6
2018-Feb-23 02:59 097 5.6
2018-Feb-23 02:54 097 5.6
2018-Feb-23 02:49 143 5.6
2018-Feb-23 02:44 143 5.6
2018-Feb-23 02:40 164 5.6
2018-Feb-23 02:34 131 5.6
2018-Feb-23 02:29 073 5.6
2018-Feb-23 02:24 028 5.6
2018-Feb-23 02:19 347 5.6
2018-Feb-23 02:14 347 5.6
2018-Feb-23 02:09 347 0 5.6
2018-Feb-23 02:04 347 0 5.6
2018-Feb-23 01:59 323 0 5.6
2018-Feb-23 01:54 296 5.6
2018-Feb-23 01:49 319 0 5.6
2018-Feb-23 01:44 270 0 5.6
2018-Feb-23 01:39 337 0 5.6
2018-Feb-23 01:34 312 1 5.6
2018-Feb-23 01:29 329 2 5.6
2018-Feb-23 01:24 325 2 5.6
2018-Feb-23 01:19 309 3 5.6
2018-Feb-23 01:14 352 2 5.6
2018-Feb-23 01:09 301 1 5.6
2018-Feb-23 01:04 323 2 5.6
2018-Feb-23 00:59 318 1 5.6
2018-Feb-23 00:54 359 0 5.6
2018-Feb-23 00:49 347 1 5.6
2018-Feb-23 00:44 332 1 5.6
2018-Feb-23 00:39 312 1 5.6
2018-Feb-23 00:34 090 1 5.0
2018-Feb-23 00:30 020 2 5.0
2018-Feb-23 00:24 100 5 5.6
2018-Feb-23 00:19 013 5 6.1
2018-Feb-23 00:14 354 2 6.7
2018-Feb-23 00:09 320 0 6.7
2018-Feb-23 00:04 360 0 6.7
2018-Feb-22 23:59 079 1 6.7
2018-Feb-22 23:54 045 2 6.7
2018-Feb-22 23:49 071 3 6.7
2018-Feb-22 23:44 086 2 6.7
2018-Feb-22 23:39 054 3 6.7
2018-Feb-22 23:34 064 3 7.2
2018-Feb-22 23:29 085 3 7.2
2018-Feb-22 23:24 069 4 7.2
2018-Feb-22 23:19 097 4 7.2
2018-Feb-22 23:14 061 3 7.2
2018-Feb-22 23:09 102 3 7.2
2018-Feb-22 23:04 083 3 7.8
2018-Feb-22 22:59 096 3 7.8
2018-Feb-22 22:54 097 3 7.8
2018-Feb-22 22:49 076 2 7.8
2018-Feb-22 22:44 082 3 7.8
2018-Feb-22 22:39 089 4 8.3
2018-Feb-22 22:34 058 4 8.3
2018-Feb-22 22:29 121 3 8.3
2018-Feb-22 22:24 141 4 8.9
2018-Feb-22 22:19 097 4 8.9
2018-Feb-22 22:14 124 4 8.9
2018-Feb-22 22:09 095 5 8.9
2018-Feb-22 22:04 131 5 8.9
2018-Feb-22 21:59 143 5 8.9
2018-Feb-22 21:54 131 5 8.9
2018-Feb-22 21:49 152 5 8.9
2018-Feb-22 21:44 162 6 8.9
2018-Feb-22 21:39 131 6 8.9
2018-Feb-22 21:34 136 5 8.9
2018-Feb-22 21:29 127 4 8.9
2018-Feb-22 21:24 161 4 8.9
2018-Feb-22 21:19 171 4 8.9
2018-Feb-22 21:14 131 4 8.9
2018-Feb-22 21:09 120 4 8.9
2018-Feb-22 21:04 164 4 8.9
2018-Feb-22 20:59 150 5 8.9
2018-Feb-22 20:54 145 4 8.9
2018-Feb-22 20:49 155 4 8.9
2018-Feb-22 20:44 147 5 8.9
2018-Feb-22 20:39 136 5 8.9
2018-Feb-22 20:34 193 5 8.9
2018-Feb-22 20:29 168 5 8.9
2018-Feb-22 20:24 185 5 8.9
2018-Feb-22 20:19 137 6 8.9
2018-Feb-22 20:14 144 5 8.9
2018-Feb-22 20:09 116 5 8.9
2018-Feb-22 20:04 148 6 8.9
2018-Feb-22 19:59 150 6 9.4
2018-Feb-22 19:54 148 6 9.4
2018-Feb-22 19:49 141 6 8.9
2018-Feb-22 19:44 155 6 8.9
2018-Feb-22 19:39 128 6 8.9
2018-Feb-22 19:34 144 6 8.9
2018-Feb-22 19:29 126 6 8.9
2018-Feb-22 19:24 128 6 8.9
2018-Feb-22 19:19 164 5 8.9
2018-Feb-22 19:14 134 5 8.9
2018-Feb-22 19:09 141 6 8.9
2018-Feb-22 19:04 157 6 8.9
2018-Feb-22 19:00 117 6 8.9
2018-Feb-22 18:55 189 5 8.9
2018-Feb-22 18:50 145 5 8.9
2018-Feb-22 18:44 134 5 8.9
2018-Feb-22 18:39 151 4 8.9
2018-Feb-22 18:35 155 5 8.9
2018-Feb-22 18:30 145 6 8.9
2018-Feb-22 18:25 179 6 8.9
2018-Feb-22 18:20 157 6 8.9
2018-Feb-22 18:14 136 5 8.9
2018-Feb-22 18:09 157 6 8.9
2018-Feb-22 18:04 141 6 8.9
2018-Feb-22 18:00 141 6 8.9
2018-Feb-22 17:54 121 8 8.9
2018-Feb-22 17:50 160 10 8.9
2018-Feb-22 17:45 164 10 8.9
2018-Feb-22 17:39 155 9 8.9
2018-Feb-22 17:34 158 9 8.9
2018-Feb-22 17:29 136 9 8.9
2018-Feb-22 17:24 167 8 8.9
2018-Feb-22 17:19 147 7 8.9
2018-Feb-22 17:15 152 7 8.9
2018-Feb-22 17:09 154 6 9.4
2018-Feb-22 17:04 151 6 9.4
2018-Feb-22 16:59 144 7 9.4
2018-Feb-22 16:54 161 7 9.4
2018-Feb-22 16:49 145 8 9.4
2018-Feb-22 16:44 144 7 9.4
2018-Feb-22 16:39 133 6 9.4
2018-Feb-22 16:34 123 6 9.4
2018-Feb-22 16:29 107 6 10.0
2018-Feb-22 16:24 141 6 10.0
2018-Feb-22 16:19 147 6 10.6
2018-Feb-22 16:14 140 5 10.0
2018-Feb-22 16:09 148 5 10.0
2018-Feb-22 16:04 158 5 10.0
2018-Feb-22 15:59 145 5 10.0
2018-Feb-22 15:54 154 4 10.0
2018-Feb-22 15:49 169 4 10.0
2018-Feb-22 15:44 157 3 10.6
2018-Feb-22 15:39 155 3 10.0
2018-Feb-22 15:34 160 4 10.0
2018-Feb-22 15:29 096 4 10.6
2018-Feb-22 15:24 144 3 10.6
2018-Feb-22 15:19 114 3 10.0
2018-Feb-22 15:14 148 4 10.0
2018-Feb-22 15:09 158 4 10.0
2018-Feb-22 15:04 171 4 10.0
2018-Feb-22 14:59 147 3 10.0
2018-Feb-22 14:54 123 2 10.0
2018-Feb-22 14:49 193 3 10.0
2018-Feb-22 14:44 137 4 10.0
2018-Feb-22 14:39 175 3 10.0
2018-Feb-22 14:34 134 2 10.0
2018-Feb-22 14:29 138 4 10.0
2018-Feb-22 14:24 162 4 10.0
2018-Feb-22 14:19 140 3 10.0
2018-Feb-22 14:14 127 3 10.0
2018-Feb-22 14:09 145 4 10.0
2018-Feb-22 14:04 140 4 10.0
2018-Feb-22 13:59 141 3 10.0
2018-Feb-22 13:54 164 3 10.0
2018-Feb-22 13:49 151 3 10.0
2018-Feb-22 13:44 131 3 10.0
2018-Feb-22 13:39 169 4 9.4
2018-Feb-22 13:34 143 4 9.4
2018-Feb-22 13:29 178 4 9.4
2018-Feb-22 13:24 148 4 9.4
2018-Feb-22 13:19 141 4 9.4
2018-Feb-22 13:14 164 3 10.0
2018-Feb-22 13:09 130 5 9.4
2018-Feb-22 13:04 130 6 9.4
2018-Feb-22 12:59 154 6 9.4
2018-Feb-22 12:54 210 6 9.4
2018-Feb-22 12:49 158 6 9.4
2018-Feb-22 12:44 162 4 9.4
2018-Feb-22 12:39 208 4 9.4
2018-Feb-22 12:34 157 4 9.4
2018-Feb-22 12:29 175 5 9.4
2018-Feb-22 12:24 172 6 8.9
2018-Feb-22 12:20 158 6 8.9
2018-Feb-22 12:14 148 5 9.4
2018-Feb-22 12:09 137 5 9.4
2018-Feb-22 12:04 148 5 9.4
2018-Feb-22 11:59 185 5 9.4
2018-Feb-22 11:54 144 4 9.4
2018-Feb-22 11:49 143 5 9.4
2018-Feb-22 11:44 168 4 10.0
2018-Feb-22 11:39 144 3 10.0
2018-Feb-22 11:34 175 3 10.0
2018-Feb-22 11:29 213 3 10.0
2018-Feb-22 11:24 240 2 10.0
2018-Feb-22 11:19 251 2 10.0
2018-Feb-22 11:14 251 1 10.0
2018-Feb-22 11:09 175 2 10.0
2018-Feb-22 11:04 188 3 9.4
2018-Feb-22 10:59 148 3 10.0
2018-Feb-22 10:54 157 2 10.0
2018-Feb-22 10:40 196 2 9.4
2018-Feb-22 10:39 138 2 9.4
2018-Feb-22 10:34 148 2 9.4
2018-Feb-22 10:29 155 2 9.4
2018-Feb-22 10:24 168 1 10.0
2018-Feb-22 10:19 150 1 10.0
2018-Feb-22 10:14 203 0 10.0
2018-Feb-22 10:09 198 1 10.0
2018-Feb-22 10:04 158 1 10.0
2018-Feb-22 09:59 200 0 9.4
2018-Feb-22 09:54 222 1 9.4
2018-Feb-22 09:49 222 1 8.9
2018-Feb-22 09:44 241 0 8.9
2018-Feb-22 09:39 275 0 8.9
2018-Feb-22 09:34 253 0 8.9
2018-Feb-22 09:29 234 0 8.9
2018-Feb-22 09:24 360 0 8.3
2018-Feb-22 09:19 085 1 8.9
2018-Feb-22 09:14 075 1 8.3
2018-Feb-22 09:09 058 1 8.3
2018-Feb-22 09:04 100 1 7.8
2018-Feb-22 08:59 066 1 7.8
2018-Feb-22 08:54 099 2 7.2
2018-Feb-22 08:49 113 3 7.2
2018-Feb-22 08:44 071 3 7.2
2018-Feb-22 08:39 048 3 7.2
2018-Feb-22 08:34 086 3 6.7
2018-Feb-22 08:29 093 3 6.7
2018-Feb-22 08:24 078 3 6.7
2018-Feb-22 08:19 051 2 6.7
2018-Feb-22 08:14 056 2 6.1
2018-Feb-22 08:09 064 4 6.1
2018-Feb-22 08:04 076 4 6.1
2018-Feb-22 07:59 086 2 6.1
2018-Feb-22 07:54 064 1 5.6
2018-Feb-22 07:49 071 0 5.6
2018-Feb-22 07:44 058 1 5.6
2018-Feb-22 07:39 078 1 5.0
2018-Feb-22 07:34 079 0 5.0
2018-Feb-22 07:29 041 0 4.4
2018-Feb-22 07:24 047 0 4.4
2018-Feb-22 07:19 064 4.4
2018-Feb-22 07:14 064 4.4
2018-Feb-22 07:09 064 0 3.9
2018-Feb-22 07:04 065 0 3.9
2018-Feb-22 06:59 048 0 3.9
2018-Feb-22 06:54 071 0 3.9
2018-Feb-22 06:49 056 3.9
2018-Feb-22 06:44 032 0 3.9
2018-Feb-22 06:39 003 0 3.9
2018-Feb-22 06:34 346 0 3.9
2018-Feb-22 06:29 328 0 3.9
2018-Feb-22 06:24 049 0 3.9
2018-Feb-22 06:19 360 0 3.9
2018-Feb-22 06:14 001 1 3.9
2018-Feb-22 06:09 010 0 3.3
2018-Feb-22 06:04 352 0 3.3
2018-Feb-22 05:59 352 0 3.3
2018-Feb-22 05:54 325 0 3.3
2018-Feb-22 05:49 017 0 2.8
2018-Feb-22 05:44 040 2.8
2018-Feb-22 05:39 068 2.8
2018-Feb-22 05:34 059 2.8
2018-Feb-22 05:29 061 2.8
2018-Feb-22 05:24 006 2.8
2018-Feb-22 05:19 006 3.3
2018-Feb-22 05:14 001 3.3
2018-Feb-22 05:09 059 3.3
2018-Feb-22 05:04 059 3.3
2018-Feb-22 04:59 059 0 3.3
2018-Feb-22 04:54 059 0 3.3
2018-Feb-22 04:49 056 0 3.3
2018-Feb-22 04:44 056 0 3.3
2018-Feb-22 04:39 065 3.3
2018-Feb-22 04:34 065 3.3
2018-Feb-22 04:29 065 0 3.3
2018-Feb-22 04:24 021 0 3.3
2018-Feb-22 04:19 337 3.3
2018-Feb-22 04:14 359 3.3
2018-Feb-22 04:09 052 0 3.3
2018-Feb-22 04:04 058 0 3.3
2018-Feb-22 03:59 059 1 3.3
2018-Feb-22 03:54 059 1 3.3
2018-Feb-22 03:49 082 1 3.3
2018-Feb-22 03:44 352 1 3.3
2018-Feb-22 03:39 061 1 3.3
2018-Feb-22 03:34 080 1 3.9
2018-Feb-22 03:29 045 1 3.9
2018-Feb-22 03:24 073 1 3.9
2018-Feb-22 03:19 021 1 3.9
2018-Feb-22 03:14 349 1 3.9
2018-Feb-22 03:09 011 2 3.9
2018-Feb-22 03:04 038 1 4.4
2018-Feb-22 02:59 064 1 4.4
2018-Feb-22 02:54 021 1 4.4
2018-Feb-22 02:49 018 2 4.4
2018-Feb-22 02:44 021 1 4.4
2018-Feb-22 02:39 360 1 4.4
2018-Feb-22 02:34 011 1 4.4
2018-Feb-22 02:29 008 2 5.0
2018-Feb-22 02:24 360 1 5.0
2018-Feb-22 02:19 034 1 5.6
2018-Feb-22 02:14 041 1 5.6
2018-Feb-22 02:09 045 1 5.6
2018-Feb-22 02:04 051 1 5.6
2018-Feb-22 01:59 054 0 5.6
2018-Feb-22 01:54 001 0 5.6
2018-Feb-22 01:49 001 0 5.6
2018-Feb-22 01:44 018 5.6
2018-Feb-22 01:39 078 5.6
2018-Feb-22 01:34 078 0 5.6
2018-Feb-22 01:29 042 0 5.6
2018-Feb-22 01:24 013 0 5.6
2018-Feb-22 01:19 058 5.6
2018-Feb-22 01:14 058 5.6
2018-Feb-22 01:09 059 5.6
2018-Feb-22 01:04 058 5.6
2018-Feb-22 00:59 058 0 5.6
2018-Feb-22 00:54 058 0 5.6
2018-Feb-22 00:49 059 1 5.0
2018-Feb-22 00:44 062 1 5.0
2018-Feb-22 00:39 360 5.6
2018-Feb-22 00:34 042 5.0
2018-Feb-22 00:29 042 5.0
2018-Feb-22 00:24 042 5.0
2018-Feb-22 00:19 042 0 5.0
2018-Feb-22 00:14 042 5.0
2018-Feb-22 00:09 023 4.4
2018-Feb-22 00:04 023 0 4.4
2018-Feb-21 23:59 023 0 5.0
2018-Feb-21 23:54 024 0 5.0
2018-Feb-21 23:49 038 1 5.0
2018-Feb-21 23:44 056 0 5.0
2018-Feb-21 23:39 062 0 5.0
2018-Feb-21 23:34 062 5.0
2018-Feb-21 23:29 055 0 5.0
2018-Feb-21 23:24 055 0 5.0
2018-Feb-21 23:19 068 5.0
2018-Feb-21 23:14 011 5.0
2018-Feb-21 23:09 011 0 5.0
2018-Feb-21 23:04 010 0 5.0
2018-Feb-21 22:59 031 0 5.0
2018-Feb-21 22:54 058 0 5.0
2018-Feb-21 22:49 040 0 5.0
2018-Feb-21 22:44 360 0 5.0
2018-Feb-21 22:39 058 0 5.6
2018-Feb-21 22:34 062 0 5.6
2018-Feb-21 22:29 062 1 5.6
2018-Feb-21 22:24 354 0 5.6
2018-Feb-21 22:19 014 0 6.1
2018-Feb-21 22:14 001 0 6.1
2018-Feb-21 22:09 001 0 6.1
2018-Feb-21 22:04 001 0 6.1
2018-Feb-21 21:59 001 0 6.1
2018-Feb-21 21:54 020 0 6.1
2018-Feb-21 21:49 027 0 6.1
2018-Feb-21 21:44 356 1 6.1
2018-Feb-21 21:39 343 2 6.1
2018-Feb-21 21:34 352 2 6.1
2018-Feb-21 21:29 326 1 6.1
2018-Feb-21 21:24 339 1 6.1
2018-Feb-21 21:19 343 1 6.1
2018-Feb-21 21:14 353 1 6.7
2018-Feb-21 21:09 021 1 6.7
2018-Feb-21 21:04 042 0 6.7
2018-Feb-21 20:59 042 0 6.7
2018-Feb-21 20:54 360 1 6.7
2018-Feb-21 20:49 353 1 6.7
2018-Feb-21 20:44 333 1 7.2
2018-Feb-21 20:39 360 1 7.2
2018-Feb-21 20:34 049 1 7.8
2018-Feb-21 20:29 032 0 7.8
2018-Feb-21 20:24 007 7.8
2018-Feb-21 20:19 023 7.8
2018-Feb-21 20:14 023 7.8
2018-Feb-21 20:09 356 0 7.8
2018-Feb-21 20:04 356 0 7.8
2018-Feb-21 19:59 343 0 7.8
2018-Feb-21 19:54 343 1 7.8
2018-Feb-21 19:49 353 2 8.3
2018-Feb-21 19:44 318 1 8.9
2018-Feb-21 19:24 110 10.6
2018-Feb-21 19:10 114 0 10.6
2018-Feb-21 19:04 083 1 10.6
2018-Feb-21 18:54 120 2 10.6
2018-Feb-21 18:49 093 2 10.6
2018-Feb-21 18:39 095 1 10.6
2018-Feb-21 18:25 112 2 10.6
2018-Feb-21 18:14 131 2 11.1
2018-Feb-21 18:09 152 2 11.1
2018-Feb-21 17:59 121 2 11.1
2018-Feb-21 17:54 140 2 11.1
2018-Feb-21 17:49 158 2 11.1
2018-Feb-21 17:44 160 1 11.1
2018-Feb-21 17:39 136 0 11.1
2018-Feb-21 17:34 213 0 11.1
2018-Feb-21 17:29 219 1 11.1
2018-Feb-21 17:24 200 1 11.1
2018-Feb-21 17:19 143 2 11.1
2018-Feb-21 17:14 145 2 11.7
2018-Feb-21 17:09 186 1 11.7
2018-Feb-21 17:04 174 1 11.7
2018-Feb-21 16:59 188 1 11.7
2018-Feb-21 16:54 198 1 11.7
2018-Feb-21 16:49 205 1 11.7
2018-Feb-21 16:44 167 2 11.7
2018-Feb-21 16:39 191 2 12.2
2018-Feb-21 16:34 186 2 12.2
2018-Feb-21 16:29 213 2 12.2
2018-Feb-21 16:24 219 1 12.2
2018-Feb-21 16:19 195 2 11.7
2018-Feb-21 16:07 145 3 12.2
2018-Feb-21 16:04 131 3 12.2
2018-Feb-21 15:59 176 3 12.2
2018-Feb-21 15:54 196 4 12.2
2018-Feb-21 15:49 157 5 12.2
2018-Feb-21 15:44 202 4 12.8
2018-Feb-21 15:39 247 4 12.8
2018-Feb-21 15:34 265 6 12.2
2018-Feb-21 15:29 275 6 12.2
2018-Feb-21 15:24 258 6 12.2
2018-Feb-21 15:19 258 6 12.2
2018-Feb-21 14:44 244 6 12.2
2018-Feb-21 14:34 260 6 12.2
2018-Feb-21 14:25 250 6 12.8
2018-Feb-21 14:19 261 6 12.8
2018-Feb-21 14:05 294 6 12.8
2018-Feb-21 14:00 282 6 12.8
2018-Feb-21 13:49 246 5 12.8
2018-Feb-21 13:45 229 5 12.2
2018-Feb-21 13:39 265 5 12.2
2018-Feb-21 13:35 271 4 12.2
2018-Feb-21 13:30 232 6 12.8
2018-Feb-21 13:19 244 8 12.8
2018-Feb-21 13:10 268 7 12.8
2018-Feb-21 13:04 264 8 13.3
2018-Feb-21 12:59 277 6 13.3
2018-Feb-21 12:54 270 6 13.3
2018-Feb-21 12:39 256 6 12.8
2018-Feb-21 12:35 244 6 12.8
2018-Feb-21 12:29 270 6 12.8
2018-Feb-21 12:24 261 5 12.8
2018-Feb-21 12:19 236 6 12.2
2018-Feb-21 12:14 256 6 12.2
2018-Feb-21 12:04 222 6 13.3
2018-Feb-21 11:54 206 5 13.3
2018-Feb-21 11:49 244 5 13.3
2018-Feb-21 11:39 280 3 12.8
2018-Feb-21 11:24 226 1 12.8
2018-Feb-21 11:09 239 1 12.2
2018-Feb-21 10:54 275 1 12.8
2018-Feb-21 10:49 220 1 12.8
2018-Feb-21 10:44 155 1 12.8
2018-Feb-21 10:39 179 0 12.8
2018-Feb-21 10:34 113 0 12.8
2018-Feb-21 10:29 145 0 12.8
2018-Feb-21 10:24 147 1 12.8
2018-Feb-21 10:19 265 1 12.8
2018-Feb-21 10:14 244 1 12.8
2018-Feb-21 10:09 280 0 12.8
2018-Feb-21 10:04 325 0 12.8